Regional Weather Roundup
Issued by NWS

Home | Current Version | Previous Version | Graphics & Text | Print | Product List | Glossary On
Versions: 1 2 3 4 5 6 7 8 9 10 11 12 13 14 15 16 17 18 19 20 21 22 23 24 25 26 27
000
ASUS45 KCYS 181310
RWRWY

WYOMING REGIONAL WEATHER ROUNDUP
NATIONAL WEATHER SERVICE CHEYENNE WY
600 AM MST WED JAN 18 2017

NOTE:  "FAIR" INDICATES FEW OR NO CLOUDS BELOW 12,000 FEET
WITH NO SIGNIFICANT WEATHER AND/OR OBSTRUCTIONS TO VISIBILITY.

WYZ001-181400-
YELLOWSTONE NATIONAL PARK

CITY           SKY/WX    TMP DP  RH WIND       PRES   REMARKS
LK YELLOWSTONE   N/A     -9 -12  87 CALM      30.05F
W YELLOWSTONE  NOT AVBL

$$
WYZ002>013-054>058-071-098>099-181400-
NORTHERN WYOMING

CITY           SKY/WX    TMP DP  RH WIND       PRES   REMARKS
JACKSON        FAIR     -11 -15  84 NE3       30.12F
CODY           FAIR      13   6  74 NE9       29.86R WCI   1
GREYBULL       FAIR      -6 -11  79 W3        29.93R
WORLAND        FAIR       3   0  87 VRB5      29.89S WCI  -6
SHERIDAN       FAIR      12   8  84 S10       29.78R WCI  -1
BUFFALO        FAIR      38  17  42 S9        29.78F WCI  31
GILLETTE       FAIR      33  17  51 S9        29.81S WCI  25
HULETT         FAIR      32  19  59 SW8       29.83R WCI  25
NEWCASTLE      FAIR      23  12  63 N3        29.89F

$$
WYZ014>020-022>026-101>103-181400-
CENTRAL WYOMING

CITY           SKY/WX    TMP DP  RH WIND       PRES   REMARKS
BIG PINEY      FAIR     -14 -17  87 CALM      30.09R
PINEDALE       FAIR     -15 -20  76 W3        30.09R
DUBOIS         NOT AVBL
LANDER         FAIR       5   2  87 CALM      29.97S
RIVERTON       FAIR       1  -2  87 NW5       29.99S WCI  -9
CASPER         FAIR      30  15  53 SW20G30   29.93S WCI  17
DOUGLAS        FAIR      17  11  77 S3        29.93R

$$
WYZ021-027>030-104>119-181400-
SOUTHERN WYOMING

CITY           SKY/WX    TMP DP  RH WIND       PRES   REMARKS
EVANSTON       FAIR      15   6  67 SW5       30.08R WCI   8
ROCK SPRINGS   FAIR      -4  -8  83 CALM      30.09S
RAWLINS        FAIR       5   1  83 CALM      30.07S
LARAMIE        FAIR      -1  -4  87 SW7       30.00F WCI -14
CHEYENNE       FAIR      31  11  43 NW12      29.92F WCI  22
TORRINGTON     FAIR      21  12  68 N8        29.90F WCI  11

$$




USA.gov is the U.S. government's official web portal to all federal, state and local government web resources and services.